Total_Precipitation_Accumulation
0.32 0.36 0.30 0.26 0.20 0.30 0.46 0.57 0.48 0.46 0.50 0.42 0.34 0.31 0.32 0.33 0.30 0.29 0.28 0.32 0.28 0.35 0.42 0.39 0.32 0.26 0.23 0.21 0.20 0.17 0.16 0.17 0.15 0.12 0.11 0.11 0.09 0.09 0.13 0.18 0.19 0.20 0.16
0.54 0.51 0.45 0.43 0.34 0.46 0.61 0.66 0.60 0.58 0.49 0.49 0.37 0.33 0.30 0.31 0.30 0.33 0.34 0.31 0.30 0.26 0.27 0.31 0.32 0.30 0.28 0.27 0.22 0.16 0.13 0.12 0.11 0.09 0.09 0.09 0.09 0.07 0.10 0.16 0.19 0.16 0.10
0.97 0.94 0.80 0.61 0.61 0.75 0.77 0.67 0.60 0.71 0.54 0.49 0.40 0.46 0.43 0.40 0.31 0.26 0.27 0.26 0.23 0.23 0.21 0.22 0.30 0.35 0.39 0.39 0.33 0.26 0.19 0.13 0.08 0.05 0.07 0.07 0.06 0.06 0.06 0.08 0.12 0.11 0.08
1.09 1.17 0.92 0.70 0.83 0.97 0.92 0.82 0.79 0.85 0.72 0.70 0.63 0.57 0.47 0.37 0.22 0.17 0.15 0.13 0.15 0.13 0.15 0.24 0.29 0.33 0.47 0.51 0.49 0.47 0.38 0.26 0.14 0.06 0.04 0.05 0.05 0.04 0.03 0.03 0.05 0.07 0.06
0.62 0.67 0.44 0.38 0.59 0.69 0.61 0.60 0.74 0.78 0.72 0.79 0.76 0.51 0.34 0.21 0.14 0.10 0.08 0.06 0.08 0.10 0.11 0.21 0.24 0.32 0.50 0.60 0.62 0.63 0.57 0.44 0.31 0.16 0.09 0.05 0.04 0.03 0.02 0.01 0.03 0.06 0.07
0.26 0.34 0.20 0.20 0.46 0.52 0.46 0.56 0.60 0.57 0.48 0.54 0.49 0.24 0.17 0.13 0.10 0.08 0.06 0.05 0.07 0.08 0.10 0.12 0.15 0.21 0.41 0.55 0.59 0.62 0.61 0.52 0.37 0.25 0.18 0.13 0.09 0.05 0.03 0.03 0.04 0.05 0.05
0.18 0.30 0.22 0.25 0.40 0.42 0.36 0.39 0.42 0.35 0.23 0.40 0.42 0.19 0.07 0.04 0.06 0.05 0.04 0.03 0.04 0.06 0.09 0.13 0.16 0.20 0.20 0.28 0.48 0.55 0.64 0.64 0.49 0.35 0.27 0.22 0.17 0.11 0.07 0.06 0.05 0.04 0.03
0.13 0.24 0.20 0.15 0.21 0.23 0.18 0.19 0.29 0.30 0.25 0.39 0.44 0.31 0.12 0.06 0.04 0.03 0.03 0.03 0.04 0.08 0.11 0.13 0.21 0.28 0.30 0.35 0.40 0.38 0.52 0.60 0.61 0.57 0.49 0.37 0.25 0.16 0.15 0.16 0.12 0.06 0.04
0.04 0.07 0.09 0.11 0.16 0.23 0.22 0.23 0.27 0.29 0.23 0.23 0.32 0.36 0.22 0.08 0.05 0.06 0.08 0.08 0.10 0.16 0.21 0.24 0.28 0.30 0.37 0.48 0.53 0.49 0.44 0.43 0.63 0.77 0.64 0.44 0.24 0.17 0.19 0.26 0.25 0.15 0.13
0.03 0.04 0.05 0.05 0.10 0.17 0.18 0.15 0.17 0.20 0.20 0.15 0.18 0.24 0.25 0.22 0.18 0.09 0.09 0.13 0.17 0.24 0.32 0.39 0.45 0.41 0.41 0.50 0.64 0.72 0.58 0.46 0.51 0.55 0.53 0.51 0.39 0.28 0.22 0.31 0.45 0.43 0.30
0.05 0.05 0.05 0.04 0.06 0.09 0.10 0.09 0.10 0.12 0.13 0.11 0.11 0.16 0.27 0.33 0.35 0.26 0.15 0.14 0.17 0.19 0.29 0.39 0.50 0.53 0.47 0.54 0.70 0.82 0.83 0.66 0.46 0.33 0.39 0.48 0.48 0.42 0.35 0.40 0.59 0.72 0.70
0.07 0.08 0.09 0.08 0.10 0.10 0.10 0.10 0.12 0.12 0.13 0.13 0.14 0.17 0.23 0.31 0.36 0.39 0.32 0.24 0.23 0.24 0.29 0.40 0.63 0.75 0.67 0.65 0.59 0.58 0.57 0.49 0.41 0.36 0.35 0.35 0.34 0.35 0.41 0.53 0.70 0.86 0.99
0.10 0.12 0.15 0.15 0.14 0.13 0.12 0.13 0.15 0.13 0.15 0.17 0.18 0.19 0.23 0.29 0.37 0.43 0.40 0.34 0.36 0.39 0.49 0.52 0.58 0.68 0.65 0.64 0.55 0.40 0.24 0.19 0.18 0.20 0.27 0.38 0.45 0.51 0.53 0.54 0.62 0.72 0.82
0.18 0.20 0.19 0.17 0.15 0.13 0.12 0.13 0.12 0.12 0.18 0.23 0.24 0.27 0.29 0.32 0.46 0.49 0.47 0.49 0.46 0.53 0.68 0.64 0.56 0.56 0.57 0.57 0.45 0.30 0.16 0.10 0.07 0.06 0.07 0.08 0.10 0.16 0.24 0.32 0.41 0.52 0.62
0.23 0.24 0.24 0.22 0.20 0.16 0.15 0.14 0.14 0.17 0.23 0.25 0.29 0.38 0.41 0.44 0.50 0.54 0.56 0.60 0.60 0.58 0.63 0.60 0.48 0.44 0.45 0.42 0.33 0.25 0.13 0.06 0.04 0.02 0.03 0.03 0.03 0.03 0.04 0.05 0.09 0.14 0.21
0.21 0.24 0.29 0.29 0.26 0.24 0.26 0.28 0.24 0.20 0.27 0.36 0.43 0.50 0.52 0.55 0.58 0.55 0.57 0.61 0.62 0.63 0.62 0.52 0.41 0.42 0.39 0.29 0.23 0.17 0.09 0.05 0.03 0.02 0.01 0.01 0.02 0.04 0.04 0.03 0.03 0.03 0.05
0.20 0.23 0.28 0.30 0.29 0.33 0.48 0.60 0.55 0.42 0.44 0.50 0.55 0.61 0.65 0.67 0.66 0.58 0.56 0.55 0.56 0.62 0.54 0.38 0.30 0.30 0.27 0.21 0.17 0.12 0.07 0.04 0.03 0.03 0.02 0.01 0.01 0.02 0.03 0.03 0.02 0.02 0.03
0.17 0.16 0.19 0.22 0.24 0.28 0.41 0.68 0.80 0.77 0.70 0.58 0.59 0.69 0.72 0.66 0.58 0.53 0.51 0.51 0.53 0.58 0.50 0.34 0.28 0.26 0.24 0.22 0.19 0.15 0.10 0.06 0.05 0.06 0.04 0.02 0.02 0.02 0.01 0.01 0.01 0.01 0.01
0.16 0.16 0.17 0.21 0.26 0.26 0.31 0.50 0.68 0.74 0.70 0.61 0.60 0.60 0.58 0.58 0.52 0.46 0.42 0.39 0.42 0.52 0.47 0.32 0.27 0.23 0.23 0.23 0.20 0.17 0.13 0.10 0.06 0.06 0.07 0.06 0.05 0.02 0.01 0.01 0.01 0.01 0.01
0.14 0.17 0.21 0.25 0.26 0.23 0.24 0.36 0.49 0.57 0.58 0.55 0.51 0.47 0.44 0.41 0.44 0.43 0.37 0.33 0.34 0.35 0.33 0.28 0.24 0.24 0.24 0.23 0.19 0.17 0.14 0.10 0.06 0.04 0.05 0.09 0.08 0.03 0.01 0.00 0.00 0.00 0.01
0.09 0.14 0.21 0.23 0.21 0.19 0.25 0.37 0.39 0.35 0.37 0.40 0.37 0.30 0.28 0.32 0.35 0.37 0.33 0.29 0.28 0.27 0.26 0.25 0.22 0.23 0.25 0.25 0.20 0.14 0.12 0.10 0.06 0.04 0.03 0.04 0.04 0.02 0.01 0.00 0.00 0.00 0.01
0.10 0.12 0.14 0.18 0.17 0.16 0.23 0.26 0.23 0.21 0.21 0.23 0.23 0.18 0.14 0.15 0.19 0.24 0.24 0.22 0.22 0.21 0.22 0.23 0.24 0.23 0.24 0.22 0.18 0.14 0.11 0.07 0.07 0.07 0.07 0.06 0.04 0.02 0.00 0.00 0.00 0.00 0.00
0.10 0.13 0.14 0.16 0.17 0.18 0.16 0.13 0.11 0.10 0.12 0.16 0.17 0.14 0.08 0.07 0.09 0.08 0.08 0.09 0.11 0.13 0.16 0.20 0.23 0.22 0.21 0.18 0.14 0.15 0.13 0.10 0.07 0.05 0.06 0.05 0.02 0.01 0.00 0.00 0.00 0.00 0.00
0.11 0.13 0.16 0.18 0.21 0.23 0.18 0.12 0.09 0.08 0.09 0.13 0.13 0.11 0.08 0.05 0.05 0.04 0.05 0.05 0.06 0.07 0.10 0.15 0.17 0.17 0.15 0.13 0.12 0.13 0.13 0.10 0.07 0.04 0.04 0.04 0.02 0.01 0.01 0.02 0.00 0.00 0.00
0.14 0.14 0.16 0.20 0.24 0.27 0.23 0.17 0.13 0.10 0.13 0.14 0.14 0.12 0.09 0.06 0.03 0.03 0.04 0.04 0.04 0.05 0.07 0.09 0.11 0.12 0.11 0.09 0.07 0.06 0.06 0.05 0.04 0.04 0.03 0.03 0.02 0.03 0.03 0.03 0.02 0.01 0.00
0.19 0.18 0.18 0.20 0.25 0.33 0.30 0.22 0.17 0.14 0.18 0.18 0.18 0.15 0.11 0.06 0.03 0.02 0.03 0.03 0.03 0.02 0.03 0.04 0.05 0.05 0.05 0.05 0.04 0.04 0.03 0.02 0.02 0.03 0.02 0.01 0.01 0.02 0.05 0.03 0.02 0.02 0.01